Regional Weather Roundup
Issued by NWS

Home | Current Version | Previous Version | Graphics & Text | Print | Product List | Glossary On
Versions: 1 2 3 4 5 6 7 8 9 10 11 12 13 14 15 16 17 18 19 20 21 22 23 24 25 26 27 28
000
ASUS45 KCYS 241910
RWRWY

WYOMING REGIONAL WEATHER ROUNDUP
NATIONAL WEATHER SERVICE CHEYENNE WY
100 PM MDT FRI OCT 24 2014

NOTE:  "FAIR" INDICATES FEW OR NO CLOUDS BELOW 12,000 FEET
WITH NO SIGNIFICANT WEATHER AND/OR OBSTRUCTIONS TO VISIBILITY.

WYZ001-242000-
YELLOWSTONE NATIONAL PARK

CITY           SKY/WX    TMP DP  RH WIND       PRES   REMARKS
LK YELLOWSTONE   N/A     49  30  48 VRB3      30.25
W YELLOWSTONE  NOT AVBL

$$
WYZ002>013-054>058-071-098>099-242000-
NORTHERN WYOMING

CITY           SKY/WX    TMP DP  RH WIND       PRES   REMARKS
JACKSON        PTSUNNY   63  28  27 S18G28    30.19F
CODY           CLOUDY    66  28  24 S9        30.05
GREYBULL       MOSUNNY   64  29  26 SW3       30.02F
WORLAND        SUNNY     71  32  23 CALM      30.01F
SHERIDAN       MOSUNNY   65  32  29 CALM      30.05F
BUFFALO        MOSUNNY   65  28  24 NE6       30.08F
GILLETTE         N/A     66  31  27 NE10      30.06
HULETT         FAIR      63  34  34 NE8       30.08S
NEWCASTLE      FAIR      68  30  24 S3        30.04

$$
WYZ014>020-022>026-101>103-242000-
CENTRAL WYOMING

CITY           SKY/WX    TMP DP  RH WIND       PRES   REMARKS
BIG PINEY      SUNNY     62  26  25 SW8       30.25F
PINEDALE       CLEAR     61  28  29 SE5       30.26F
DUBOIS         FAIR      63  25  23 NW22G43   30.16F HAZE
LANDER         MOSUNNY   66  29  24 CALM      30.10F
RIVERTON       SUNNY     65  25  22 E5        30.11F
CASPER         SUNNY     73  26  17 SW28G33   30.10F
DOUGLAS        SUNNY     78  23  13 W17G28    30.08F

$$
WYZ021-027>030-104>119-242000-
SOUTHERN WYOMING

CITY           SKY/WX    TMP DP  RH WIND       PRES   REMARKS
EVANSTON       MOSUNNY   67  26  21 SW21G28   30.29S
KEMMERER       CLEAR     63  25  23 W17       30.28F
FORT BRIDGER   FAIR      69  24  18 W20G25    30.30F
ROCK SPRINGS   SUNNY     63  25  23 VRB5      30.27F
DIXON          FAIR      68  28  22 SW16G23   30.31F
RAWLINS        SUNNY     68  27  21 SW23G30   30.25F
SARATOGA       FAIR      68  27  21 W20G28    30.28F
LARAMIE        SUNNY     68  24  19 SW18G26   30.26F
CHEYENNE       PTSUNNY   73  23  15 W15       30.19F
TORRINGTON     SUNNY     77  29  17 W23G29    30.05F
PINE BLUFFS    FAIR      77  27  15 W18G24    30.14F

$$



USA.gov is the U.S. government's official web portal to all federal, state and local government web resources and services.